User: anonymous   Login
Location: Bonny Doon Airfield
(37.0704°N, 122.1252°W)
Time: 09:26:58
(UTC-07:00)
Language:

BREEZE M DEB (TANK) - Orbit

View from above orbital plane
View from above orbital plane
View from above satellite
View from above satellite

Ground track
Ground track

The orbit data is extracted from the following two-line orbital elements,

1 33437U 08057B   17145.52397617 +.00000651 +00000-0 +12913-3 0  9999
2 33437 049.5332 265.3305 5003256 059.2287 340.6697 05.60356109172590
Epoch (UTC): 25 May 2017 12:34:31
Eccentricity: 0.5003256
inclination: 49.5332°
perigee height: 312 km
apogee height: 13710 km
right ascension of ascending node: 265.3305°
argument of perigee: 59.2287°
revolutions per day: 5.60356109
mean anomaly at epoch: 340.6697°
orbit number at epoch: 17259

The dashed part of the orbit path shows where the satellite is in the earth's shadow,  

DLR